Hourly Weather Roundup
Issued by NWS Central Illinois

Home | Current Version | Previous Version | Text Only | Print | Product List | Glossary On
Versions: 1 2 3 4 5 6 7 8 9 10 11 12 13 14 15 16 17 18 19 20 21 22 23 24 25 26 27 28 29 30 31 32 33 34 35 36 37 38 39 40 41 42 43 44 45 46 47 48 49 50
000
NZUS43 KILX 271810
HWRILX

AREA WEATHER ROUNDUP
NATIONAL WEATHER SERVICE, LINCOLN IL
100 PM CDT WED AUG 27 2014


CITY           SKY/WX    TMP DP  RH WIND       PRES   REMARKS
BLOOMINGTON    FAIR      82  69  64 N6        30.15R HX  85
CHAMPAIGN      CLOUDY    86  74  67 E6        30.12S HX  94
6HR MIN TEMP:  68; 6HR MAX TEMP:  87;

DECATUR        CLOUDY    83  75  77 NW3       30.12S HX  90
6HR MIN TEMP:  69; 6HR MAX TEMP:  84; 6HR PCP: TRACE;

FLORA          MOSUNNY   88  73  62 CALM      30.09F HX  95
6HR MIN TEMP:  70; 6HR MAX TEMP:  88;

GALESBURG      FAIR      81  69  67 NW3       30.16S HX  83
JACKSONVILLE   FAIR      85  75  72 NE5       30.13S HX  92
6HR MIN TEMP:  71; 6HR MAX TEMP:  86;

LACON          FAIR      79  68  68 CALM      30.13S HX  81
6HR MIN TEMP:  69; 6HR MAX TEMP:  80;

LAWRENCEVILLE  MOSUNNY   89  75  63 N5        30.08F HX  99
6HR MIN TEMP:  72; 6HR MAX TEMP:  89;

LITCHFIELD     FAIR      85  73  69 CALM      30.11F HX  91
$$


CITY           SKY/WX    TMP DP  RH WIND       PRES   REMARKS
LINCOLN        FAIR      86  72  64 NE3       30.09S HX  92
6HR MIN TEMP:  70; 6HR MAX TEMP:  86;

MACOMB         FAIR      78  70  77 N5        30.17F HX  80
MATTOON        FAIR      87  72  60 NW5       30.10F HX  93
6HR MIN TEMP:  69; 6HR MAX TEMP:  87; 6HR PCP: TRACE;

MT CARMEL AP   SUNNY     91  77  62 W3        30.08F HX 105
OLNEY-NOBLE AP FAIR      90  77  66 CALM      30.09F HX 102
PARIS          PTSUNNY   85  72  63 CALM      30.11F HX  91
6HR MIN TEMP:  68; 6HR MAX TEMP:  85;

PEORIA         FAIR      85  68  56 NE3       30.13S HX  88
6HR MIN TEMP:  73; 6HR MAX TEMP:  86;

PONTIAC        FAIR      81  70  69 CALM      30.14S HX  84
RANTOUL        PTSUNNY   84  70  62 E3        30.13S HX  89
6HR MIN TEMP:  73; 6HR MAX TEMP:  85;

ROBINSON       SUNNY     90  72  56 CALM      30.09F HX  97
6HR MIN TEMP:  69; 6HR MAX TEMP:  91;

SPRINGFIELD    CLOUDY    85  74  69 E6        30.12S HX  92
6HR MIN TEMP:  74; 6HR MAX TEMP:  85;

TAYLORVILLE    FAIR      84  73  70 CALM      30.10F HX  91
$$

...REGIONAL REPORTS...


CITY           SKY/WX    TMP DP  RH WIND       PRES   REMARKS
CHICAGO O`HARE PTSUNNY   80  57  45 VRB6      30.14S HX  80
KANKAKEE       PTSUNNY   78  66  66 CALM      30.14S HX  80
MOLINE         FAIR      78  63  59 VRB3      30.16S HX  80
MOUNT VERNON   FAIR      90  75  62 N3        30.09F HX 100
PITTSFIELD     PTSUNNY   83  73  69 CALM      30.14S HX  89
QUINCY         FAIR      81  74  79 N8        30.14S THUNDER HX  86
ROCKFORD       PTSUNNY   80  58  46 VRB3      30.17S HX  80
$$


CITY           SKY/WX    TMP DP  RH WIND       PRES   REMARKS
BURLINGTON     FAIR      76  69  79 N9        30.15F
CEDAR RAPIDS   PTSUNNY   73  63  70 CALM      30.18F
DES MOINES     LGT RAIN  74  65  73 CALM      30.17F
KIRKSVILLE     LGT RAIN  74  70  87 NE6       30.17S FOG
OTTUMWA        LGT RAIN  70  67  90 E6        30.16S
ST LOUIS       PTSUNNY   94  72  48 W8        30.10S HX 102
$$


CITY           SKY/WX    TMP DP  RH WIND       PRES   REMARKS
TERRE HAUTE    SUNNY     88  71  57 CALM      30.09F HX  94
EVANSVILLE     MOSUNNY   92  72  51 N5        30.09F HX  99
INDIANAPOLIS   MOSUNNY   85  69  58 VRB3      30.09F HX  89
LAFAYETTE      MOSUNNY   81  71  71 CALM      30.10F HX  85
MADISON        PTSUNNY   76  58  53 N9        30.18F
MILWAUKEE      MOSUNNY   72  63  73 E13       30.17F
$$





USA.gov is the U.S. government's official web portal to all federal, state and local government web resources and services.